Litchfield, MN

10:09 AM CDT on August 25, 2016 (GMT -0500)
Litchfield Municipal

Weather History for KLJF - September, 2013

Change the Weather History Date:

Saturday, September 28, 2013

  Actual Average Record
Temperature  
Mean Temperature 62 °F -  
Max Temperature 73 °F 68 °F 86 °F (1956)
Min Temperature 50 °F 42 °F 27 °F (1961)
Degree Days  
Heating Degree Days 4    
Growing Degree Days 12 (Base 50)    
Moisture  
Dew Point 54 °F    
Average Humidity 79    
Maximum Humidity 100    
Minimum Humidity 55    
Precipitation  
Precipitation 0.00 in - - ()
Sea Level Pressure  
Sea Level Pressure 29.77 in    
Wind  
Wind Speed 10 mph (SW)    
Max Wind Speed 21 mph    
Max Gust Speed 26 mph    
Visibility 9 miles    
Events Rain    
Averages and records for this station are not official NWS values.
T = Trace of Precipitation, MM = Missing Value Source: NWS Daily Summary

Daily Weather History Graph

Daily Weather History Graph

Search for Another Location

Airport or City:

Trip Planner

Search our weather history database for the weather conditions in past years. The results will help you decide how hot, cold, wet, or windy it might be!

Date:

Astronomy

Sep. 28, 2013 Rise Set
Actual Time 7:12 AM CDT 7:03 PM CDT
Civil Twilight 6:43 AM CDT 7:32 PM CDT
Nautical Twilight 6:09 AM CDT 8:06 PM CDT
Astronomical Twilight 5:34 AM CDT 8:41 PM CDT
Moon 12:47 AM CDT (9/28) 3:35 PM CDT (9/28)
Length of Visible Light 12h 49m
Length of Day
11h 50m
Waning Crescent, 36% of the Moon is Illuminated
Sep 28
Waning Crescent
Oct 4
New
Oct 11
First Quarter
Oct 18
Full
Oct 26
Last Quarter

Hourly Weather History & Observations

Time (CDT) Temp. Dew Point Humidity Pressure Visibility Wind Dir Wind Speed Gust Speed Precip Events Conditions
12:13 AM 73.4 °F 60.8 °F 65% 29.75 in 10.0 mi SSE 10.4 mph 17.3 mph N/A   Clear
12:33 AM 73.4 °F 60.8 °F 65% 29.75 in 10.0 mi SSE 9.2 mph 17.3 mph N/A   Clear
12:52 AM 73.4 °F 60.8 °F 65% 29.75 in 10.0 mi SSE 9.2 mph 19.6 mph N/A   Clear
1:13 AM 73.4 °F 60.8 °F 65% 29.74 in 10.0 mi SSE 10.4 mph - N/A   Clear
1:33 AM 71.6 °F 60.8 °F 69% 29.74 in 10.0 mi SSE 11.5 mph 16.1 mph N/A   Clear
1:52 AM 71.6 °F 60.8 °F 69% 29.74 in 10.0 mi SSE 10.4 mph 19.6 mph N/A   Scattered Clouds
2:13 AM 71.6 °F 60.8 °F 69% 29.73 in 10.0 mi SSE 10.4 mph 18.4 mph N/A   Clear
2:33 AM 71.6 °F 60.8 °F 69% 29.72 in 10.0 mi SSE 11.5 mph 17.3 mph N/A   Scattered Clouds
2:52 AM 71.6 °F 60.8 °F 69% 29.71 in 10.0 mi SSE 10.4 mph 18.4 mph N/A   Scattered Clouds
3:13 AM 71.6 °F 60.8 °F 69% 29.70 in 10.0 mi SSE 10.4 mph 20.7 mph N/A   Scattered Clouds
3:33 AM 71.6 °F 60.8 °F 69% 29.70 in 10.0 mi SSE 10.4 mph 21.9 mph N/A   Mostly Cloudy
3:52 AM 71.6 °F 60.8 °F 69% 29.70 in 10.0 mi SSE 9.2 mph - N/A   Scattered Clouds
4:13 AM 71.6 °F 60.8 °F 69% 29.69 in 10.0 mi SSE 11.5 mph 18.4 mph N/A   Scattered Clouds
4:33 AM 71.6 °F 60.8 °F 69% 29.67 in 10.0 mi SSE 12.7 mph 20.7 mph N/A   Scattered Clouds
4:52 AM 69.8 °F 60.8 °F 73% 29.67 in 10.0 mi SSE 12.7 mph 20.7 mph N/A   Scattered Clouds
5:13 AM 69.8 °F 60.8 °F 73% 29.66 in 10.0 mi SSE 11.5 mph 18.4 mph N/A   Mostly Cloudy
5:33 AM 69.8 °F 62.6 °F 78% 29.67 in 10.0 mi SSE 9.2 mph - N/A   Overcast
5:52 AM 69.8 °F 62.6 °F 78% 29.67 in 10.0 mi SSE 10.4 mph 16.1 mph N/A   Overcast
6:13 AM 69.8 °F 62.6 °F 78% 29.65 in 10.0 mi SSE 8.1 mph 19.6 mph N/A   Overcast
6:33 AM 69.8 °F 62.6 °F 78% 29.65 in 10.0 mi SSE 9.2 mph 17.3 mph N/A   Overcast
6:52 AM 66.2 °F 64.4 °F 94% 29.65 in 10.0 mi SSE 10.4 mph - N/A Rain Light Rain
7:13 AM 66.2 °F 64.4 °F 94% 29.64 in 10.0 mi SSE 9.2 mph - N/A   Overcast
7:33 AM 66.2 °F 64.4 °F 94% 29.64 in 10.0 mi SSE 6.9 mph 17.3 mph N/A   Overcast
7:52 AM 66.2 °F 64.4 °F 94% 29.64 in 10.0 mi SSE 6.9 mph - N/A Rain Light Rain
8:13 AM 66.2 °F 64.4 °F 94% 29.64 in 5.0 mi SSE 6.9 mph - N/A Rain Light Rain
8:33 AM 66.2 °F 64.4 °F 94% 29.63 in 5.0 mi SSE 6.9 mph - N/A Rain Light Rain
8:52 AM 66.2 °F 64.4 °F 94% 29.62 in 5.0 mi South 6.9 mph - N/A Rain Light Rain
9:13 AM 66.2 °F 64.4 °F 94% 29.63 in 5.0 mi WSW 10.4 mph 17.3 mph N/A Rain Light Rain
9:33 AM 57.2 °F 57.2 °F 100% 29.65 in 10.0 mi West 13.8 mph 19.6 mph N/A   Drizzle
9:52 AM 55.4 °F 55.4 °F 100% 29.68 in 7.0 mi West 18.4 mph 26.5 mph N/A   Drizzle
10:13 AM 53.6 °F 53.6 °F 100% 29.68 in - West 18.4 mph 21.9 mph N/A   Unknown
10:33 AM 53.6 °F 53.6 °F 100% 29.70 in 2.5 mi West 12.7 mph 21.9 mph N/A   Drizzle
10:52 AM 53.6 °F 53.6 °F 100% 29.71 in 4.0 mi West 13.8 mph 20.7 mph N/A   Drizzle
11:12 AM 53.6 °F 53.6 °F 100% 29.73 in 3.0 mi West 16.1 mph 24.2 mph N/A   Drizzle
11:33 AM 53.6 °F 53.6 °F 100% 29.74 in 4.0 mi West 15.0 mph 26.5 mph N/A   Light Drizzle
11:52 AM 53.6 °F 53.6 °F 100% 29.74 in 10.0 mi West 12.7 mph 16.1 mph N/A   Light Drizzle
12:12 PM 53.6 °F 53.6 °F 100% 29.76 in 10.0 mi West 8.1 mph 21.9 mph N/A   Overcast
12:32 PM 55.4 °F 55.4 °F 100% 29.75 in 10.0 mi West 10.4 mph 16.1 mph N/A   Light Drizzle
12:53 PM 55.4 °F 55.4 °F 100% 29.76 in 10.0 mi West 12.7 mph 20.7 mph N/A   Scattered Clouds
1:12 PM 55.4 °F 55.4 °F 100% 29.77 in 10.0 mi West 17.3 mph - N/A   Mostly Cloudy
1:33 PM 57.2 °F 53.6 °F 88% 29.77 in 10.0 mi West 13.8 mph 24.2 mph N/A   Overcast
1:53 PM 59.0 °F 53.6 °F 82% 29.77 in 10.0 mi West 20.7 mph 26.5 mph N/A   Overcast
2:12 PM 57.2 °F 51.8 °F 82% 29.78 in 10.0 mi West 12.7 mph 24.2 mph N/A   Overcast
2:33 PM 57.2 °F 51.8 °F 82% 29.79 in 10.0 mi West 16.1 mph 23.0 mph N/A   Overcast
2:53 PM 59.0 °F 53.6 °F 82% 29.80 in 10.0 mi West 9.2 mph 21.9 mph N/A   Overcast
3:12 PM 59.0 °F 51.8 °F 77% 29.81 in 10.0 mi West 15.0 mph 20.7 mph N/A   Overcast
3:33 PM 59.0 °F 50.0 °F 72% 29.82 in 10.0 mi West 15.0 mph 23.0 mph N/A   Overcast
3:53 PM 60.8 °F 48.2 °F 63% 29.83 in 10.0 mi West 12.7 mph 24.2 mph N/A   Overcast
4:12 PM 60.8 °F 48.2 °F 63% 29.83 in 10.0 mi West 11.5 mph 23.0 mph N/A   Overcast
4:33 PM 60.8 °F 48.2 °F 63% 29.83 in 10.0 mi West 16.1 mph 20.7 mph N/A   Mostly Cloudy
4:53 PM 60.8 °F 46.4 °F 59% 29.84 in 10.0 mi West 11.5 mph 20.7 mph N/A   Scattered Clouds
5:12 PM 60.8 °F 46.4 °F 59% 29.85 in 10.0 mi West 17.3 mph 23.0 mph N/A   Scattered Clouds
5:33 PM 60.8 °F 46.4 °F 59% 29.85 in 10.0 mi West 13.8 mph 19.6 mph N/A   Clear
5:53 PM 60.8 °F 44.6 °F 55% 29.87 in 10.0 mi West 12.7 mph 19.6 mph N/A   Scattered Clouds
6:12 PM 60.8 °F 44.6 °F 55% 29.88 in 10.0 mi West 11.5 mph 19.6 mph N/A   Scattered Clouds
6:33 PM 59.0 °F 44.6 °F 59% 29.89 in 10.0 mi West 8.1 mph - N/A   Clear
6:53 PM 57.2 °F 44.6 °F 63% 29.90 in 10.0 mi West 4.6 mph - N/A   Clear
7:12 PM 55.4 °F 44.6 °F 67% 29.91 in 10.0 mi West 3.5 mph - N/A   Clear
7:33 PM 53.6 °F 44.6 °F 72% 29.92 in 10.0 mi Calm Calm - N/A   Clear
7:53 PM 53.6 °F 44.6 °F 72% 29.92 in 10.0 mi Calm Calm - N/A   Clear
8:12 PM 53.6 °F 46.4 °F 77% 29.92 in 10.0 mi Calm Calm - N/A   Clear
8:33 PM 51.8 °F 46.4 °F 82% 29.92 in 10.0 mi Calm Calm - N/A   Clear
8:52 PM 50.0 °F 46.4 °F 87% 29.92 in 10.0 mi Calm Calm - N/A   Clear
9:13 PM 50.0 °F 46.4 °F 87% 29.92 in 10.0 mi Calm Calm - N/A   Clear
9:33 PM 51.8 °F 46.4 °F 82% 29.93 in 10.0 mi Calm Calm - N/A   Unknown
9:52 PM 51.8 °F 46.4 °F 82% 29.93 in 10.0 mi Calm Calm - N/A   Scattered Clouds
10:13 PM 50.0 °F 46.4 °F 87% 29.93 in 10.0 mi Calm Calm - N/A   Unknown
10:33 PM 51.8 °F 46.4 °F 82% 29.93 in 10.0 mi Calm Calm - N/A   Scattered Clouds
10:52 PM 51.8 °F 46.4 °F 82% 29.93 in 10.0 mi Calm Calm - N/A   Unknown
11:13 PM 51.8 °F 44.6 °F 76% 29.93 in 10.0 mi South 3.5 mph - N/A   Mostly Cloudy
11:33 PM 51.8 °F 44.6 °F 76% 29.93 in 10.0 mi South 3.5 mph - N/A   Scattered Clouds
11:52 PM 51.8 °F 44.6 °F 76% 29.93 in 10.0 mi SSW 3.5 mph - N/A   Scattered Clouds